Time,TemperatureF,DewpointF,PressureIn,WindDirection,WindDirectionDegrees,WindSpeedMPH,WindSpeedGustMPH,Humidity,HourlyPrecipIn,Conditions,Clouds,dailyrainin,SolarRadiationWatts/m^2,SoftwareType,DateUTC
2013-06-21 00:00:00,76.0,73.2,30.10,WNW,292,0.0,2.0,91,0.00,,---,0.00,0.00,VWS V14.01,2013-06-21 04:00:00,
2013-06-21 00:08:00,75.8,73.0,30.10,WNW,301,0.0,0.0,91,0.00,,,0.00,0,weatherlink.com 1.10,2013-06-21 04:08:00,
2013-06-21 00:23:00,75.7,73.0,30.10,WNW,301,1.0,2.0,91,0.00,,,0.00,0,weatherlink.com 1.10,2013-06-21 04:23:00,
2013-06-21 00:30:00,75.7,72.9,30.10,WNW,292,0.0,2.0,91,0.00,,---,0.00,0.00,VWS V14.01,2013-06-21 04:30:00,
2013-06-21 00:38:00,75.7,73.0,30.10,WNW,301,0.0,1.0,91,0.00,,,0.00,0,weatherlink.com 1.10,2013-06-21 04:38:00,
2013-06-21 00:53:00,75.8,73.0,30.09,WNW,301,0.0,1.0,91,0.00,,,0.00,0,weatherlink.com 1.10,2013-06-21 04:53:00,
2013-06-21 01:00:00,75.8,73.0,30.09,WNW,292,0.0,1.0,91,0.00,,---,0.00,0.00,VWS V14.01,2013-06-21 05:00:00,
2013-06-21 01:08:00,75.8,73.0,30.09,WNW,301,0.0,0.0,91,0.00,,,0.00,0,weatherlink.com 1.10,2013-06-21 05:08:00,
2013-06-21 01:23:00,75.8,73.0,30.09,WNW,301,1.0,1.0,92,0.00,,,0.00,0,weatherlink.com 1.10,2013-06-21 05:23:00,
2013-06-21 01:30:00,75.8,73.3,30.09,WNW,292,0.0,1.0,92,0.00,,---,0.00,0.00,VWS V14.01,2013-06-21 05:30:00,
2013-06-21 01:38:00,75.8,73.0,30.08,WNW,301,0.0,2.0,92,0.00,,,0.00,0,weatherlink.com 1.10,2013-06-21 05:38:00,
2013-06-21 01:53:00,75.9,74.0,30.07,WNW,301,1.0,3.0,92,0.00,,,0.00,0,weatherlink.com 1.10,2013-06-21 05:53:00,
2013-06-21 02:00:00,75.9,73.4,30.07,WNW,292,1.0,3.0,92,0.00,,---,0.00,0.00,VWS V14.01,2013-06-21 06:00:00,
2013-06-21 02:08:00,75.9,73.0,30.07,WNW,301,0.0,1.0,91,0.00,,,0.00,0,weatherlink.com 1.10,2013-06-21 06:08:00,
2013-06-21 02:23:00,75.8,73.0,30.06,WNW,301,0.0,0.0,91,0.00,,,0.00,0,weatherlink.com 1.10,2013-06-21 06:23:00,
2013-06-21 02:30:00,75.8,73.0,30.07,WNW,292,0.0,1.0,91,0.00,,---,0.00,0.00,VWS V14.01,2013-06-21 06:30:00,
2013-06-21 02:39:00,75.7,73.0,30.06,WNW,301,0.0,0.0,91,0.00,,,0.00,0,weatherlink.com 1.10,2013-06-21 06:39:00,
2013-06-21 02:54:00,75.6,73.0,30.05,WNW,301,0.0,0.0,91,0.00,,,0.00,0,weatherlink.com 1.10,2013-06-21 06:54:00,
2013-06-21 03:00:00,75.6,72.8,30.05,WNW,292,0.0,0.0,91,0.00,,---,0.00,0.00,VWS V14.01,2013-06-21 07:00:00,
2013-06-21 03:09:00,75.6,73.0,30.05,WNW,301,0.0,0.0,91,0.00,,,0.00,0,weatherlink.com 1.10,2013-06-21 07:09:00,
2013-06-21 03:24:00,75.5,73.0,30.04,WNW,301,0.0,1.0,91,0.00,,,0.00,0,weatherlink.com 1.10,2013-06-21 07:24:00,
2013-06-21 03:30:00,75.5,72.7,30.04,WNW,292,0.0,1.0,91,0.00,,---,0.00,0.00,VWS V14.01,2013-06-21 07:30:00,
2013-06-21 03:39:00,75.6,73.0,30.04,WNW,301,0.0,1.0,91,0.00,,,0.00,0,weatherlink.com 1.10,2013-06-21 07:39:00,
2013-06-21 03:54:00,75.6,73.0,30.04,WNW,301,0.0,1.0,91,0.00,,,0.00,0,weatherlink.com 1.10,2013-06-21 07:54:00,
2013-06-21 04:00:00,75.5,72.7,30.04,WNW,292,0.0,1.0,91,0.00,,---,0.00,0.00,VWS V14.01,2013-06-21 08:00:00,
2013-06-21 04:09:00,75.4,73.0,30.04,WNW,301,1.0,2.0,91,0.00,,,0.00,0,weatherlink.com 1.10,2013-06-21 08:09:00,
2013-06-21 04:24:00,75.2,73.0,30.04,WNW,301,0.0,0.0,91,0.00,,,0.00,0,weatherlink.com 1.10,2013-06-21 08:24:00,
2013-06-21 04:30:00,75.3,72.5,30.04,WNW,292,0.0,2.0,91,0.00,,---,0.00,0.00,VWS V14.01,2013-06-21 08:30:00,
2013-06-21 04:39:00,75.5,73.0,30.04,WNW,283,0.0,3.0,91,0.00,,,0.00,0,weatherlink.com 1.10,2013-06-21 08:39:00,
2013-06-21 04:54:00,75.6,73.0,30.04,WNW,283,1.0,2.0,91,0.00,,,0.00,0,weatherlink.com 1.10,2013-06-21 08:54:00,
2013-06-21 05:00:00,75.7,73.2,30.04,WNW,292,0.0,3.0,92,0.00,,---,0.00,0.00,VWS V14.01,2013-06-21 09:00:00,
2013-06-21 05:09:00,75.7,73.0,30.03,SSW,194,2.0,3.0,92,0.00,,,0.00,0,weatherlink.com 1.10,2013-06-21 09:09:00,
2013-06-21 05:24:00,75.7,73.0,30.04,SSW,194,1.0,2.0,91,0.00,,,0.00,0,weatherlink.com 1.10,2013-06-21 09:24:00,
2013-06-21 05:30:00,75.7,73.2,30.04,SSW,202,1.0,3.0,92,0.00,,---,0.00,0.00,VWS V14.01,2013-06-21 09:30:00,
2013-06-21 05:39:00,75.8,73.0,30.04,SSW,194,1.0,3.0,92,0.00,,,0.00,0,weatherlink.com 1.10,2013-06-21 09:39:00,
2013-06-21 05:54:00,75.9,74.0,30.04,SSW,194,1.0,3.0,92,0.00,,,0.00,0,weatherlink.com 1.10,2013-06-21 09:54:00,
2013-06-21 06:00:00,75.9,73.4,30.04,SSW,202,1.0,3.0,92,0.00,,---,0.00,0.00,VWS V14.01,2013-06-21 10:00:00,
2013-06-21 06:09:00,75.9,74.0,30.04,SSW,194,0.0,1.0,92,0.00,,,0.00,0,weatherlink.com 1.10,2013-06-21 10:09:00,
2013-06-21 06:24:00,75.7,73.0,30.05,SSW,194,0.0,0.0,91,0.00,,,0.00,0,weatherlink.com 1.10,2013-06-21 10:24:00,
2013-06-21 06:30:00,75.6,72.8,30.05,SSW,202,0.0,2.0,91,0.00,,---,0.00,0.00,VWS V14.01,2013-06-21 10:30:00,
2013-06-21 06:39:00,75.7,73.0,30.05,SSW,194,0.0,0.0,92,0.00,,,0.00,5,weatherlink.com 1.10,2013-06-21 10:39:00,
2013-06-21 06:54:00,75.7,73.0,30.06,SSW,194,0.0,3.0,91,0.00,,,0.00,9,weatherlink.com 1.10,2013-06-21 10:54:00,
2013-06-21 07:00:00,75.6,73.1,30.06,SSW,202,0.0,3.0,92,0.00,,---,0.00,6.00,VWS V14.01,2013-06-21 11:00:00,
2013-06-21 07:09:00,75.7,73.0,30.07,SSW,195,0.0,1.0,92,0.00,,,0.00,19,weatherlink.com 1.10,2013-06-21 11:09:00,
2013-06-21 07:24:00,75.9,74.0,30.07,SSW,195,0.0,2.0,92,0.00,,,0.00,42,weatherlink.com 1.10,2013-06-21 11:24:00,
2013-06-21 07:30:00,76.0,73.5,30.07,SSW,202,0.0,4.0,92,0.00,,---,0.00,29.00,VWS V14.01,2013-06-21 11:30:00,
2013-06-21 07:39:00,76.4,74.0,30.08,NE,46,0.0,4.0,93,0.00,,,0.00,76,weatherlink.com 1.10,2013-06-21 11:39:00,
2013-06-21 07:54:00,76.9,75.0,30.08,NE,46,0.0,1.0,93,0.00,,,0.00,155,weatherlink.com 1.10,2013-06-21 11:54:00,
2013-06-21 08:00:00,77.2,75.0,30.08,NE,45,1.0,4.0,93,0.00,,---,0.00,111.00,VWS V14.01,2013-06-21 12:00:00,
2013-06-21 08:09:00,78.0,76.0,30.08,NE,46,0.0,2.0,93,0.00,,,0.00,223,weatherlink.com 1.10,2013-06-21 12:09:00,
2013-06-21 08:24:00,79.3,77.0,30.09,NE,46,0.0,3.0,92,0.00,,,0.00,290,weatherlink.com 1.10,2013-06-21 12:24:00,
2013-06-21 08:30:00,79.6,77.1,30.09,NE,45,0.0,3.0,92,0.00,,---,0.00,242.00,VWS V14.01,2013-06-21 12:30:00,
2013-06-21 08:39:00,80.5,77.0,30.10,NE,44,0.0,4.0,90,0.00,,,0.00,350,weatherlink.com 1.10,2013-06-21 12:39:00,
2013-06-21 08:54:00,82.1,78.0,30.10,NE,44,2.0,4.0,86,0.00,,,0.00,406,weatherlink.com 1.10,2013-06-21 12:54:00,
2013-06-21 09:00:00,82.6,77.6,30.11,NE,45,2.0,4.0,85,0.00,,---,0.00,365.00,VWS V14.01,2013-06-21 13:00:00,
2013-06-21 09:09:00,83.2,77.0,30.11,NE,44,1.0,3.0,82,0.00,,,0.00,466,weatherlink.com 1.10,2013-06-21 13:09:00,
2013-06-21 09:24:00,84.4,77.0,30.11,NE,35,2.0,3.0,78,0.00,,,0.00,526,weatherlink.com 1.10,2013-06-21 13:24:00,
2013-06-21 09:30:00,84.6,77.0,30.12,NE,45,1.0,3.0,78,0.00,,---,0.00,481.00,VWS V14.01,2013-06-21 13:30:00,
2013-06-21 09:39:00,85.5,77.0,30.12,North,11,1.0,4.0,76,0.00,,,0.00,547,weatherlink.com 1.10,2013-06-21 13:39:00,
2013-06-21 09:55:00,86.6,77.0,30.11,NNW,338,1.0,3.0,74,0.00,,,0.00,585,weatherlink.com 1.10,2013-06-21 13:55:00,
2013-06-21 10:00:00,86.8,77.1,30.11,NNW,338,2.0,4.0,73,0.00,,---,0.00,556.00,VWS V14.01,2013-06-21 14:00:00,
2013-06-21 10:10:00,87.5,77.0,30.11,NW,313,1.0,4.0,72,0.00,,,0.00,594,weatherlink.com 1.10,2013-06-21 14:10:00,
2013-06-21 10:25:00,88.3,77.0,30.11,WNW,298,0.0,3.0,70,0.00,,,0.00,635,weatherlink.com 1.10,2013-06-21 14:25:00,
2013-06-21 10:30:00,88.4,77.4,30.11,WNW,292,2.0,4.0,70,0.00,,---,0.00,615.00,VWS V14.01,2013-06-21 14:30:00,
2013-06-21 10:40:00,89.2,78.0,30.12,WNW,298,0.0,3.0,69,0.00,,,0.00,608,weatherlink.com 1.10,2013-06-21 14:40:00,
2013-06-21 10:55:00,90.1,78.0,30.12,West,269,1.0,5.0,67,0.00,,,0.00,775,weatherlink.com 1.10,2013-06-21 14:55:00,
2013-06-21 11:00:00,90.2,78.2,30.12,WNW,292,2.0,5.0,68,0.00,,---,0.00,692.00,VWS V14.01,2013-06-21 15:00:00,
2013-06-21 11:10:00,90.7,78.0,30.12,West,265,7.0,7.0,67,0.00,,,0.00,830,weatherlink.com 1.10,2013-06-21 15:10:00,
2013-06-21 11:25:00,90.1,78.0,30.11,WNW,283,3.0,5.0,67,0.00,,,0.00,847,weatherlink.com 1.10,2013-06-21 15:25:00,
2013-06-21 11:30:00,90.0,77.6,30.11,West,270,3.0,7.0,67,0.00,,---,0.00,833.00,VWS V14.01,2013-06-21 15:30:00,
2013-06-21 11:40:00,90.0,78.0,30.11,WNW,286,3.0,5.0,67,0.00,,,0.00,907,weatherlink.com 1.10,2013-06-21 15:40:00,
2013-06-21 11:55:00,89.9,78.0,30.11,West,268,3.0,6.0,67,0.00,,,0.00,946,weatherlink.com 1.10,2013-06-21 15:55:00,
2013-06-21 12:00:00,90.0,77.6,30.11,West,270,3.0,6.0,67,0.00,,---,0.00,910.00,VWS V14.01,2013-06-21 16:00:00,
2013-06-21 12:25:00,91.8,79.0,30.12,WSW,238,3.0,5.0,66,0.00,,,0.00,912,weatherlink.com 1.10,2013-06-21 16:25:00,
2013-06-21 12:30:00,92.0,78.6,30.12,WSW,248,3.0,5.0,65,0.00,,---,0.00,1028.00,VWS V14.01,2013-06-21 16:30:00,
2013-06-21 12:55:00,90.1,70.0,30.13,NE,52,5.0,13.0,51,0.00,,,0.00,134,weatherlink.com 1.10,2013-06-21 16:55:00,
2013-06-21 13:00:00,89.1,69.8,30.14,West,270,4.0,13.0,53,0.00,,---,0.00,358.00,VWS V14.01,2013-06-21 17:00:00,
2013-06-21 13:10:00,86.4,69.0,30.13,ENE,73,2.0,7.0,57,0.00,,,0.00,204,weatherlink.com 1.10,2013-06-21 17:10:00,
2013-06-21 13:30:00,84.1,68.7,30.13,ENE,68,3.0,7.0,60,0.00,,---,0.00,187.00,VWS V14.01,2013-06-21 17:30:00,
2013-06-21 13:55:00,82.2,69.0,30.12,NW,315,5.0,6.0,65,0.00,,,0.00,171,weatherlink.com 1.10,2013-06-21 17:55:00,
2013-06-21 14:00:00,82.0,69.1,30.12,ENE,68,2.0,7.0,65,0.00,,---,0.00,183.00,VWS V14.01,2013-06-21 18:00:00,
2013-06-21 14:10:00,81.6,69.0,30.11,NE,38,1.0,3.0,66,0.00,,,0.00,139,weatherlink.com 1.10,2013-06-21 18:10:00,
2013-06-21 14:25:00,81.3,71.0,30.11,SW,234,1.0,5.0,70,0.00,,,0.00,116,weatherlink.com 1.10,2013-06-21 18:25:00,
2013-06-21 14:30:00,81.2,70.9,30.11,NE,45,2.0,5.0,71,0.00,,---,0.00,137.00,VWS V14.01,2013-06-21 18:30:00,
2013-06-21 14:40:00,80.7,71.0,30.11,NE,39,0.0,3.0,73,0.02,,,0.02,111,weatherlink.com 1.10,2013-06-21 18:40:00,
2013-06-21 14:55:00,79.8,71.0,30.11,NE,39,1.0,2.0,75,0.05,,,0.05,146,weatherlink.com 1.10,2013-06-21 18:55:00,
2013-06-21 15:00:00,79.6,71.4,30.11,NE,45,1.0,3.0,76,0.05,,---,0.05,121.00,VWS V14.01,2013-06-21 19:00:00,
2013-06-21 15:10:00,78.9,71.0,30.11,ESE,110,0.0,2.0,77,0.06,,,0.06,144,weatherlink.com 1.10,2013-06-21 19:10:00,
2013-06-21 15:25:00,78.3,71.0,30.11,North,5,2.0,3.0,78,0.06,,,0.06,127,weatherlink.com 1.10,2013-06-21 19:25:00,
2013-06-21 15:30:00,78.3,71.3,30.11,East,90,1.0,4.0,79,0.06,,---,0.06,141.00,VWS V14.01,2013-06-21 19:30:00,
2013-06-21 15:40:00,78.1,72.0,30.10,ENE,63,2.0,4.0,82,0.04,,,0.06,151,weatherlink.com 1.10,2013-06-21 19:40:00,
2013-06-21 15:55:00,78.2,73.0,30.09,ESE,107,1.0,2.0,84,0.01,,,0.06,213,weatherlink.com 1.10,2013-06-21 19:55:00,
2013-06-21 16:00:00,78.2,73.0,30.08,ESE,112,1.0,5.0,84,0.06,,---,0.06,168.00,VWS V14.01,2013-06-21 20:00:00,
2013-06-21 16:10:00,78.5,74.0,30.08,ESE,107,1.0,1.0,85,0.00,,,0.06,251,weatherlink.com 1.10,2013-06-21 20:10:00,
2013-06-21 16:25:00,79.0,75.0,30.08,ESE,108,0.0,3.0,86,0.00,,,0.06,264,weatherlink.com 1.10,2013-06-21 20:25:00,
2013-06-21 16:30:00,79.1,74.6,30.08,ESE,112,1.0,3.0,86,0.01,,---,0.06,252.00,VWS V14.01,2013-06-21 20:30:00,
2013-06-21 16:40:00,79.2,74.0,30.08,SE,137,2.0,3.0,84,0.00,,,0.06,243,weatherlink.com 1.10,2013-06-21 20:40:00,
2013-06-21 16:55:00,79.4,74.0,30.08,WSW,250,3.0,4.0,83,0.00,,,0.06,186,weatherlink.com 1.10,2013-06-21 20:55:00,
2013-06-21 17:00:00,79.4,73.8,30.08,SE,135,2.0,5.0,83,0.00,,---,0.06,227.00,VWS V14.01,2013-06-21 21:00:00,
2013-06-21 17:10:00,79.5,74.0,30.09,SE,137,0.0,2.0,83,0.00,,,0.06,149,weatherlink.com 1.10,2013-06-21 21:10:00,
2013-06-21 17:25:00,79.7,74.0,30.08,SE,137,0.0,2.0,83,0.00,,,0.06,158,weatherlink.com 1.10,2013-06-21 21:25:00,
2013-06-21 17:30:00,79.7,74.1,30.08,SE,135,1.0,3.0,83,0.00,,---,0.06,155.00,VWS V14.01,2013-06-21 21:30:00,
2013-06-21 17:40:00,79.9,74.0,30.08,SE,137,1.0,2.0,83,0.00,,,0.06,179,weatherlink.com 1.10,2013-06-21 21:40:00,
2013-06-21 17:56:00,80.3,74.0,30.08,SSE,167,1.0,3.0,82,0.00,,,0.06,165,weatherlink.com 1.10,2013-06-21 21:56:00,
2013-06-21 18:00:00,80.3,74.3,30.08,SE,135,1.0,3.0,82,0.00,,---,0.06,173.00,VWS V14.01,2013-06-21 22:00:00,
2013-06-21 18:10:00,80.5,74.0,30.09,SSE,167,2.0,2.0,81,0.00,,,0.06,144,weatherlink.com 1.10,2013-06-21 22:10:00,
2013-06-21 18:25:00,80.7,74.0,30.09,SSE,167,1.0,3.0,80,0.00,,,0.06,148,weatherlink.com 1.10,2013-06-21 22:25:00,
2013-06-21 18:30:00,80.8,74.1,30.09,SSE,158,1.0,3.0,80,0.00,,---,0.06,149.00,VWS V14.01,2013-06-21 22:30:00,
2013-06-21 18:40:00,81.0,74.0,30.09,SSE,166,1.0,3.0,80,0.00,,,0.06,139,weatherlink.com 1.10,2013-06-21 22:40:00,
2013-06-21 18:55:00,81.0,74.0,30.09,SSE,166,2.0,2.0,80,0.00,,,0.06,116,weatherlink.com 1.10,2013-06-21 22:55:00,
2013-06-21 19:00:00,81.0,74.2,30.09,SSE,158,1.0,3.0,80,0.00,,---,0.06,132.00,VWS V14.01,2013-06-21 23:00:00,
2013-06-21 19:10:00,80.9,74.0,30.09,SSE,166,0.0,1.0,80,0.00,,,0.06,107,weatherlink.com 1.10,2013-06-21 23:10:00,
2013-06-21 19:26:00,81.1,75.0,30.09,SSE,166,0.0,2.0,81,0.00,,,0.06,84,weatherlink.com 1.10,2013-06-21 23:26:00,
2013-06-21 19:30:00,81.1,74.7,30.09,SSE,158,0.0,2.0,81,0.00,,---,0.06,100.00,VWS V14.01,2013-06-21 23:30:00,
2013-06-21 19:41:00,81.1,75.0,30.08,SSE,166,0.0,1.0,81,0.00,,,0.06,40,weatherlink.com 1.10,2013-06-21 23:41:00,
2013-06-21 19:56:00,80.8,75.0,30.08,SSE,166,0.0,2.0,81,0.00,,,0.06,16,weatherlink.com 1.10,2013-06-21 23:56:00,
2013-06-21 20:00:00,80.7,74.3,30.08,SSE,158,0.0,2.0,81,0.00,,---,0.06,35.00,VWS V14.01,2013-06-22 00:00:00,
2013-06-21 20:11:00,80.3,74.0,30.09,SSE,166,2.0,2.0,81,0.00,,,0.06,5,weatherlink.com 1.10,2013-06-22 00:11:00,
2013-06-21 20:26:00,79.6,74.0,30.09,SSE,166,1.0,3.0,82,0.00,,,0.06,0,weatherlink.com 1.10,2013-06-22 00:26:00,
2013-06-21 20:30:00,79.5,73.5,30.09,SSE,158,1.0,3.0,82,0.00,,---,0.06,4.00,VWS V14.01,2013-06-22 00:30:00,
2013-06-21 20:41:00,79.0,74.0,30.09,SSE,166,0.0,3.0,83,0.00,,,0.06,0,weatherlink.com 1.10,2013-06-22 00:41:00,
2013-06-21 20:56:00,78.5,74.0,30.10,SSE,166,1.0,2.0,85,0.00,,,0.06,0,weatherlink.com 1.10,2013-06-22 00:56:00,
2013-06-21 21:00:00,78.5,73.6,30.10,SSE,158,1.0,3.0,85,0.00,,---,0.06,0.00,VWS V14.01,2013-06-22 01:00:00,
2013-06-21 21:11:00,78.2,74.0,30.10,SSE,166,0.0,3.0,86,0.00,,,0.06,0,weatherlink.com 1.10,2013-06-22 01:11:00,
2013-06-21 21:26:00,78.1,74.0,30.10,SSE,166,0.0,2.0,87,0.00,,,0.06,0,weatherlink.com 1.10,2013-06-22 01:26:00,
2013-06-21 21:30:00,78.0,73.8,30.10,SSE,158,1.0,3.0,87,0.00,,---,0.06,0.00,VWS V14.01,2013-06-22 01:30:00,
2013-06-21 21:41:00,77.5,73.0,30.10,SSE,166,0.0,1.0,87,0.00,,,0.06,0,weatherlink.com 1.10,2013-06-22 01:41:00,
2013-06-21 21:56:00,77.2,74.0,30.11,SSE,166,1.0,2.0,88,0.00,,,0.06,0,weatherlink.com 1.10,2013-06-22 01:56:00,
2013-06-21 22:00:00,77.2,73.4,30.11,SSE,158,0.0,2.0,88,0.00,,---,0.06,0.00,VWS V14.01,2013-06-22 02:00:00,
2013-06-21 22:11:00,77.1,73.0,30.11,SSE,166,0.0,2.0,88,0.00,,,0.06,0,weatherlink.com 1.10,2013-06-22 02:11:00,
2013-06-21 22:26:00,77.1,74.0,30.11,SSE,166,0.0,1.0,89,0.00,,,0.06,0,weatherlink.com 1.10,2013-06-22 02:26:00,
2013-06-21 22:30:00,77.0,73.5,30.11,SSE,158,0.0,2.0,89,0.00,,---,0.06,0.00,VWS V14.01,2013-06-22 02:30:00,
2013-06-21 22:41:00,77.0,74.0,30.11,SSE,166,1.0,3.0,89,0.00,,,0.06,0,weatherlink.com 1.10,2013-06-22 02:41:00,
2013-06-21 22:56:00,77.1,74.0,30.11,SSE,166,1.0,3.0,90,0.00,,,0.06,0,weatherlink.com 1.10,2013-06-22 02:56:00,
2013-06-21 23:00:00,77.0,73.8,30.12,SSE,158,1.0,3.0,90,0.00,,---,0.06,0.00,VWS V14.01,2013-06-22 03:00:00,
2013-06-21 23:11:00,77.0,74.0,30.11,SSE,166,1.0,2.0,90,0.00,,,0.06,0,weatherlink.com 1.10,2013-06-22 03:11:00,
2013-06-21 23:26:00,77.0,74.0,30.12,SSE,166,2.0,2.0,90,0.00,,,0.06,0,weatherlink.com 1.10,2013-06-22 03:26:00,
2013-06-21 23:30:00,77.0,73.8,30.11,SSE,158,1.0,2.0,90,0.00,,---,0.06,0.00,VWS V14.01,2013-06-22 03:30:00,
2013-06-21 23:41:00,77.0,74.0,30.11,SSE,166,1.0,2.0,90,0.00,,,0.06,0,weatherlink.com 1.10,2013-06-22 03:41:00,
2013-06-21 23:56:00,77.1,74.0,30.11,SSE,166,2.0,3.0,91,0.00,,,0.06,0,weatherlink.com 1.10,2013-06-22 03:56:00,